London-Corbin, KY

3:44 AM EDT on October 24, 2017 (GMT -0400)
London-Corbin / McKee

Weather History for KLOZ - April, 2012

Change the Weather History Date:

Saturday, April 28, 2012

  Actual Average Record
Temperature  
Mean Temperature 68 °F 60 °F  
Max Temperature 82 °F 72 °F 85 °F (1956)
Min Temperature 53 °F 48 °F 30 °F (1967)
Degree Days  
Heating Degree Days 0 6  
Month to date heating degree days 258 264  
Since 1 July heating degree days 3546 4089  
Cooling Degree Days 3 1  
Month to date cooling degree days 12 20  
Year to date cooling degree days 34 23  
Growing Degree Days 18 (Base 50)    
Moisture  
Dew Point 50 °F    
Average Humidity 57    
Maximum Humidity 78    
Minimum Humidity 36    
Precipitation  
Precipitation 0.00 in 0.14 in 1.55 in (1970)
Month to date precipitation 2.91 3.78  
Year to date precipitation 13.57  
Sea Level Pressure  
Sea Level Pressure 30.02 in    
Wind  
Wind Speed 6 mph (SSW)    
Max Wind Speed 18 mph    
Max Gust Speed 24 mph    
Visibility 10 miles    
Events      
T = Trace of Precipitation, MM = Missing Value Source: NWS Daily Summary

Daily Weather History Graph

Daily Weather History Graph

Search for Another Location

Airport or City:

Trip Planner

Search our weather history database for the weather conditions in past years. The results will help you decide how hot, cold, wet, or windy it might be!

Date:

Astronomy

Apr. 28, 2012 Rise Set
Actual Time 6:44 AM EDT 8:23 PM EDT
Civil Twilight 6:17 AM EDT 8:51 PM EDT
Nautical Twilight 5:43 AM EDT 9:24 PM EDT
Astronomical Twilight 5:08 AM EDT 10:00 PM EDT
Moon 12:24 PM EDT (4/28) 1:46 AM EDT (4/28)
Length of Visible Light 14h 34m
Length of Day
13h 38m
Waxing Crescent, 42% of the Moon is Illuminated
Apr 28
Waxing Crescent
Apr 29
First Quarter
May 5
Full
May 12
Last Quarter
May 20
New

Hourly Weather History & Observations

Time (EDT) Temp. Heat Index Dew Point Humidity Pressure Visibility Wind Dir Wind Speed Gust Speed Precip Events Conditions
12:53 AM 55.9 °F - 39.9 °F 55% 30.07 in 10.0 mi ENE 3.5 mph - N/A   Clear
1:53 AM 54.0 °F - 39.9 °F 59% 30.06 in 10.0 mi NE 4.6 mph - N/A   Mostly Cloudy
2:53 AM 55.4 °F - 39.2 °F 54% 30.06 in 10.0 mi East 4.6 mph - N/A   Overcast
3:53 AM 55.0 °F - 39.0 °F 55% 30.04 in 10.0 mi East 4.6 mph - N/A   Overcast
4:53 AM 55.0 °F - 39.0 °F 55% 30.04 in 10.0 mi Calm Calm - N/A   Overcast
5:53 AM 55.0 °F - 39.9 °F 57% 30.04 in 10.0 mi East 3.5 mph - N/A   Overcast
6:53 AM 54.0 °F - 41.0 °F 62% 30.04 in 10.0 mi East 3.5 mph - N/A   Overcast
7:53 AM 55.0 °F - 43.0 °F 64% 30.05 in 10.0 mi Calm Calm - N/A   Mostly Cloudy
8:53 AM 59.0 °F - 46.0 °F 62% 30.06 in 10.0 mi Calm Calm - N/A   Clear
9:53 AM 66.0 °F - 52.0 °F 60% 30.04 in 10.0 mi South 4.6 mph - N/A   Clear
10:53 AM 72.0 °F - 57.9 °F 61% 30.02 in 10.0 mi SSW 11.5 mph - N/A   Partly Cloudy
11:53 AM 73.9 °F - 59.0 °F 59% 30.01 in 10.0 mi SW 9.2 mph 20.7 mph N/A   Scattered Clouds
12:53 PM 77.0 °F - 57.0 °F 50% 30.00 in 10.0 mi SSW 12.7 mph 24.2 mph N/A   Scattered Clouds
1:53 PM 78.1 °F - 57.0 °F 48% 29.99 in 10.0 mi SW 12.7 mph 20.7 mph N/A   Mostly Cloudy
2:53 PM 79.0 °F - 57.0 °F 47% 29.98 in 10.0 mi West 9.2 mph - N/A   Partly Cloudy
3:53 PM 80.1 °F 80.0 °F 54.0 °F 40% 29.95 in 10.0 mi SSW 12.7 mph 19.6 mph N/A   Clear
4:53 PM 81.0 °F - 52.0 °F 36% 29.94 in 10.0 mi WSW 12.7 mph - N/A   Clear
5:53 PM 80.1 °F - 52.0 °F 38% 29.94 in 10.0 mi West 9.2 mph - N/A   Clear
6:53 PM 79.0 °F - 52.0 °F 39% 29.94 in 10.0 mi West 9.2 mph - N/A   Clear
7:53 PM 75.0 °F - 52.0 °F 44% 29.96 in 10.0 mi Calm Calm - N/A   Clear
8:53 PM 71.6 °F - 53.6 °F 53% 30.02 in 10.0 mi WNW 3.5 mph - N/A   Clear
9:53 PM 68.0 °F - 57.0 °F 68% 30.03 in 10.0 mi Calm Calm - N/A   Clear
10:53 PM 64.9 °F - 57.0 °F 75% 30.05 in 10.0 mi ENE 3.5 mph - N/A   Scattered Clouds
11:53 PM 64.9 °F - 55.9 °F 73% 30.06 in 10.0 mi Calm Calm - N/A   Mostly Cloudy